Showing default

YUNYAO-1 43, 63344

Orbit data source: Space-Track

YUNYAO-1 43, 63344 is a payload satellite owned by Yunyao yuhang (CN) in SSO that was launched on Fri, 21 Mar 2025 UTC via a GUSHENXING 1 launch vehicle from the Jiuquan Satellite Launch Center, China (JSC). Payload-class satellites include a variety of spacecraft equipped with specific instruments for various scientific and technological missions. These include communications satellites like Starlink; space stations such as the ISS; scientific satellites like the Hubble; Earth observation satellites from companies like Planet Labs, Umbra, and HawkEye 360; GPS; miniature CubeSats for education and research; and military/defense satellites.

Loading next visibility...
Identifier
63344, 2025-059A
Orbit
SSO
Last TLE update
1 day ago
Origin
Manufacturer
Changguang WJ
Mission
Operational spacecraft
Bus & Motor
YY-1, Unknown motor
Mass
~50 kg wet, ~50 kg dry
Launch date (UTC)
2025-03-21 (1 month ago)
Launch vehicle
GUSHENXING 1
Launch site
Jiuquan Satellite Launch Center, China (JSC)
Object type
Payload
Rocket body
Debris
Shape & HBR
Unknown
Radar Cross Section
Medium (>0.1 m² and <1 m²)

Expand to show TLE details & history

TLE from 1 day ago
0 YUNYAO-1 43
1 63344U 25059A   25119.15134482  .00006147  00000-0  38373-3 0  9992
2 63344  97.5990 299.0116 0014030 148.9260 211.2801 15.09774324  5841
Epoch: 2025-04-29T03:37Z
Definitive object data (Epoch: 2025-04-29T03:37:56.192Z)
Latitude
-0.00009°
Longitude
27.17235°
Altitude
548.257 km
Speed
7.583 km/s
True Right ascension
19h 56m 02s
True Declination
0° 00' 00"
Sunlit
Object was in daylight at TLE epoch
Visualization TLE readout
Latitude
-14.9161°
Longitude
-153.56924°
Altitude
536.823 km
Speed
7.597 km/s
Apparent Right ascension
07h 12m 30s
Apparent Declination
-27° 15' 40"
Sunlit
Object is in daylight
Visualization observer readout
Local Sidereal Time
18:16:52
Azimuth
313.45° NW
Elevation
-72.887°
Doppler factor
1
Orbital elements
Apogee altitude
543.574 km
Perigee altitude
524.179 km
Semi-major axis
6,912.014 km
Eccentricity
0.001403
Inclination
97.599°
RAAN
299.0116°
Arg. of periapsis
148.926°
True anomaly
211.19675°
Mean anomaly
211.2801°
Eccentric anomaly
211.23841°
Mean motion
3.77691 °/min
BSTAR
0.00038373
Orbital period
95.32 mins
Loading maneuver chart data...
Loading SW <> Apogee altitude chart data...
Loading historical data...
Loading historical data...
Loading historical data...
Loading historical data...
Loading historical data...
Loading historical data...
Loading historical data...
Other satellites on launch #59 in the year 2025 (2025-03-21 UTC)

YUNYAO-1 43 Visibility forecast

Observer location: undefined°, undefined°

Span
Click to sort rows by Start time (UTC) header in descending order
Start Az.
Max El. time (UTC)
Max El. Az.
Max El.
End time (UTC)
End Az.
6 mins2025-04-30 11:34:49.618Z140.927° SSE2025-04-30 11:37:49.618Z66.664° ENE34.587°2025-04-30 11:40:49.618Z4.162° NNE
6 mins2025-05-01 00:44:49.618Z17.887° NNE2025-05-01 00:46:49.618Z45.905° ENE42.618°2025-05-01 00:50:49.618Z188.169° SSW
|